Location: Anaheim
(33.8350°N, 117.9140°W)
Time: 20:28:26
(UTC-08:00)

Amateur Radio Satellites - All Passes

Search period start: 21 January 2018 19:58
Search period end: 22 January 2018 19:58
Location: Anaheim, 33.8350°N, 117.9140°W

Satellite Date Start Highest point End Downlink Frequencies (MHz)
Time Altitude Azimuth
nSIGHT-1 21 Jan 20:00:37 20:03:26 29° 323° (NW) 20:06:15 .
ZACube-1 21 Jan 20:02:59 20:06:37 25° 265° (W) 20:10:19 437.345
AO-73 21 Jan 20:09:09 20:12:44 24° 265° (W) 20:16:25 145.935
AO-85 21 Jan 20:17:18 20:22:12 50° 58° (ENE) 20:27:21 145.980
ISS 21 Jan 20:17:51 20:20:47 31° 323° (NW) 20:23:44 437.550
PCSat 21 Jan 20:28:45 20:31:18 13° 257° (WSW) 20:33:52 145.827
TIGRISAT 21 Jan 20:33:53 20:36:37 15° 93° (E) 20:39:19 435.000
DELFI C3 21 Jan 20:41:51 20:45:46 85° 73° (ENE) 20:49:41 145.870
Oscar 11 21 Jan 20:42:18 20:45:02 16° 266° (W) 20:47:46 .
STRAND 1 21 Jan 20:47:15 20:49:57 14° 295° (WNW) 20:52:39 437.568
UNISAT 6 21 Jan 20:48:30 20:52:22 25° 96° (E) 20:56:12 437.425
YUBILEINY 21 Jan 20:57:44 21:01:38 14° 78° (ENE) 21:05:31 435.215
Max Valier Satellite 21 Jan 21:07:57 21:11:38 66° 259° (W) 21:15:22 145.860
FO-29 21 Jan 21:09:37 21:13:36 23° 292° (WNW) 21:17:40 435.910
EO-88 21 Jan 21:24:12 21:27:48 63° 259° (WSW) 21:31:27 145.990 - 145.960
ESTCUBE 1 21 Jan 21:30:19 21:32:37 14° 66° (ENE) 21:34:54 437.505/2401.250
AO-85 21 Jan 21:58:50 22:02:19 18° 251° (WSW) 22:05:52 145.980
TIGRISAT 21 Jan 22:08:58 22:13:25 43° 287° (WNW) 22:17:50 435.000
PRISM 21 Jan 22:15:40 22:19:35 45° 100° (E) 22:23:30 437.425
AIST 2D 21 Jan 22:16:49 22:19:15 18° 95° (E) 22:21:39 435.315
UNISAT 6 21 Jan 22:25:01 22:28:56 27° 290° (WNW) 22:32:49 437.425
LO-87 21 Jan 22:39:56 22:43:25 60° 259° (W) 22:46:58 145.935 - 145.965
SPROUT 21 Jan 22:48:09 22:51:23 21° 70° (ENE) 22:54:37 437.525
YUBILEINY 21 Jan 22:48:13 22:57:04 88° 92° (E) 23:05:54 435.215
NANOSAT C BR1 21 Jan 22:49:46 22:51:18 12° 93° (E) 22:52:50 145.865
NO-84 21 Jan 22:57:44 22:59:06 13° 38° (NE) 23:00:30 435.350 FM
VELOX 1 21 Jan 23:00:39 23:03:23 17° 68° (ENE) 23:06:09 145.980
QB50P2 21 Jan 23:03:21 23:06:48 23° 96° (E) 23:10:14 145.880/145.840
ESTCUBE 1 21 Jan 23:04:37 23:08:58 47° 261° (W) 23:13:20 437.505/2401.250
O/OREOS (USA 219) 21 Jan 23:16:15 23:20:21 35° 104° (ESE) 23:24:27 437.305
DUCHIFAT 1 21 Jan 23:30:45 23:34:35 32° 98° (E) 23:38:23 145.980
EO-79 21 Jan 23:33:15 23:37:24 48° 100° (E) 23:41:31 145.935-145.965
AIST 2D 21 Jan 23:49:48 23:52:15 18° 289° (WNW) 23:54:42 435.315
PRISM 21 Jan 23:53:00 23:54:24 12° 293° (WNW) 23:55:47 437.425
POLYITAN 1 22 Jan 00:08:31 00:12:46 60° 284° (WNW) 00:16:57 437.675
AO-91 22 Jan 00:11:33 00:14:26 16° 95° (E) 00:17:27 145.960
NANOSAT C BR1 22 Jan 00:23:06 00:27:10 45° 286° (WNW) 00:31:13 145.865
SPROUT 22 Jan 00:23:34 00:27:05 25° 264° (W) 00:30:36 437.525
BUGSAT 1 22 Jan 00:27:23 00:31:10 31° 97° (E) 00:34:55 437.445
NO-84 22 Jan 00:33:38 00:36:20 35° 232° (SW) 00:39:11 435.350 FM
UKube-1 22 Jan 00:34:07 00:37:14 20° 69° (ENE) 00:40:21 .
VELOX 1 22 Jan 00:35:28 00:39:30 36° 262° (W) 00:43:33 145.980
QB50P2 22 Jan 00:39:02 00:42:26 23° 290° (WNW) 00:45:49 145.880/145.840
Gurwin Techsat 1B 22 Jan 00:42:18 00:46:17 21° 95° (E) 00:50:13 435.225
Oscar 19 22 Jan 00:46:09 00:50:42 31° 97° (E) 00:55:13 437.125/150
DX 1 22 Jan 00:47:26 00:51:36 50° 74° (ENE) 00:55:47 434.975-435.025
YUBILEINY 22 Jan 00:49:57 00:54:55 16° 293° (WNW) 00:59:55 435.215
O/OREOS (USA 219) 22 Jan 00:56:45 00:59:49 18° 299° (WNW) 01:02:53 437.305
MOZHAYETS 4 22 Jan 01:05:29 01:07:24 13° 66° (ENE) 01:09:21
DUCHIFAT 1 22 Jan 01:07:10 01:09:56 17° 291° (WNW) 01:12:41 145.980
EO-79 22 Jan 01:11:03 01:12:39 12° 294° (WNW) 01:14:16 145.935-145.965
50 SAT 22 Jan 01:17:15 01:20:17 61° 259° (WSW) 01:23:20 437.505
BEESAT 22 Jan 01:25:21 01:27:10 12° 64° (ENE) 01:29:00 436.000
AO-91 22 Jan 01:46:27 01:50:53 46° 285° (WNW) 01:55:43 145.960
BUGSAT 1 22 Jan 02:03:21 02:06:14 18° 291° (WNW) 02:09:06 437.445
UKube-1 22 Jan 02:09:20 02:13:01 28° 262° (W) 02:16:44 .
ITUPSAT 1 22 Jan 02:21:01 02:25:36 49° 73° (ENE) 02:30:13 437.325
Gurwin Techsat 1B 22 Jan 02:21:22 02:26:16 39° 289° (WNW) 02:31:10 435.225
Oscar 19 22 Jan 02:25:38 02:29:50 26° 292° (WNW) 02:34:01 437.125/150
DX 1 22 Jan 02:26:51 02:27:59 11° 267° (W) 02:29:08 434.975-435.025
nSIGHT-1 22 Jan 02:29:48 02:32:51 42° 40° (NE) 02:35:53 .
MOZHAYETS 4 22 Jan 02:39:31 02:44:01 55° 260° (W) 02:48:35
FALCONSAT 3 22 Jan 02:42:46 02:46:15 41° 157° (SSE) 02:49:44 435.103
CUBESAT XI-V 22 Jan 02:46:17 02:50:37 38° 73° (ENE) 02:54:57 437.345
ISS 22 Jan 02:48:21 02:51:30 43° 40° (NE) 02:54:39 437.550
BEESAT 22 Jan 02:59:40 03:04:21 60° 259° (WSW) 03:09:05 436.000
AO-7 22 Jan 03:14:09 03:22:29 67° 105° (ESE) 03:30:44 .
ITAMSAT 1 22 Jan 03:33:50 03:39:01 65° 102° (ESE) 03:44:11 435.822/435.867
SO-50 22 Jan 03:43:32 03:47:04 24° 111° (ESE) 03:50:38 436.795
M-CUBED/EXP-1 PRIME 22 Jan 03:56:42 03:57:30 11° 99° (E) 03:58:16 437.505
KKS-1 22 Jan 03:59:03 04:02:57 32° 72° (ENE) 04:06:53 437.445
ITUPSAT 1 22 Jan 04:01:12 04:03:37 14° 267° (W) 04:06:03 437.325
nSIGHT-1 22 Jan 04:07:15 04:08:42 13° 233° (SW) 04:10:09 .
STARS 22 Jan 04:12:15 04:15:00 17° 67° (ENE) 04:17:44 437.465
FALCONSAT 3 22 Jan 04:21:33 04:25:14 76° 352° (N) 04:28:54 435.103
CUBESAT XI-V 22 Jan 04:24:59 04:28:02 17° 266° (W) 04:31:06 437.345
ISS 22 Jan 04:26:05 04:27:40 13° 233° (SW) 04:29:15 437.550
DOVE 4 22 Jan 04:41:42 04:46:10 88° 275° (W) 04:50:53 437.250
XW-2F 22 Jan 05:00:34 05:02:25 13° 94° (E) 05:04:16 145.980 - 146.000
AO-7 22 Jan 05:08:09 05:14:30 25° 301° (WNW) 05:20:51 .
XW-2D 22 Jan 05:10:37 05:13:31 21° 96° (E) 05:16:23 145.860 - 145.880
ITAMSAT 1 22 Jan 05:15:30 05:17:52 13° 297° (WNW) 05:20:13 435.822/435.867
CUTE-I 22 Jan 05:17:49 05:22:01 23° 96° (E) 05:26:13 437.470
SO-50 22 Jan 05:23:29 05:27:20 28° 306° (NW) 05:31:17 436.795
XW-2B 22 Jan 05:27:50 05:31:16 34° 98° (E) 05:34:40 145.730 - 145.750
M-CUBED/EXP-1 PRIME 22 Jan 05:29:10 05:31:58 26° 292° (WNW) 05:34:43 437.505
FO-29 22 Jan 05:35:56 05:37:43 11° 63° (ENE) 05:39:28 435.910
HO-68 22 Jan 05:36:11 05:41:10 20° 94° (E) 05:46:07 435.675
KKS-1 22 Jan 05:36:31 05:39:31 18° 265° (W) 05:42:33 437.445
STARS 22 Jan 05:47:01 05:51:00 35° 262° (W) 05:55:01 437.465
CUBEBUG 2 22 Jan 05:57:06 05:59:45 15° 92° (E) 06:02:23 437.445
LilacSat-2 22 Jan 05:57:42 06:01:29 76° 283° (WNW) 06:05:13 437.200
XW-2C 22 Jan 05:58:00 06:01:45 83° 282° (WNW) 06:05:28 145.795 - 145.815
FALCONSAT 3 22 Jan 06:00:45 06:04:26 73° 8° (N) 06:08:05 435.103
RS-15 22 Jan 06:16:28 06:27:09 37° 105° (ESE) 06:37:46 29.354- 29.394
STRAND 1 22 Jan 06:18:11 06:23:08 55° 73° (ENE) 06:28:06 437.568
KAITUO 1B 22 Jan 06:28:37 06:32:09 45° 285° (WNW) 06:35:39 145.475/437.950
XW-2F 22 Jan 06:33:17 06:36:32 29° 287° (WNW) 06:39:46 145.980 - 146.000
NUDT-PHONESAT 22 Jan 06:36:54 06:40:18 37° 286° (WNW) 06:43:39 437.300
XW-2D 22 Jan 06:44:49 06:47:30 19° 289° (WNW) 06:50:11 145.860 - 145.880
SEEDS 22 Jan 06:48:26 06:52:30 51° 100° (E) 06:56:31 437.485
CUTE-I 22 Jan 06:57:15 07:02:04 36° 290° (WNW) 07:06:52 437.470
XW-2B 22 Jan 07:03:32 07:05:04 12° 292° (WNW) 07:06:34 145.730 - 145.750
CUTE 1.7 + AOD 2 22 Jan 07:04:02 07:08:08 54° 285° (WNW) 07:12:13 437.475
FO-29 22 Jan 07:15:05 07:22:06 84° 76° (ENE) 07:28:18 435.910
HO-68 22 Jan 07:22:13 07:29:16 64° 289° (WNW) 07:36:18 435.675
CUBEBUG 2 22 Jan 07:31:59 07:36:31 45° 286° (WNW) 07:41:00 437.445
UWE-3 22 Jan 07:33:55 07:38:36 80° 282° (WNW) 07:43:10 435.000/436.395/437.385
FALCONSAT 3 22 Jan 07:39:55 07:43:26 44° 202° (SSW) 07:46:56 435.103
PCSat 22 Jan 07:40:34 07:43:11 14° 103° (ESE) 07:45:48 145.827
UNISAT 6 22 Jan 07:44:50 07:47:02 14° 66° (ENE) 07:49:16 437.425
ZACube-1 22 Jan 07:54:05 07:58:38 87° 101° (E) 08:03:05 437.345
AO-73 22 Jan 07:59:52 08:04:24 88° 107° (ESE) 08:08:48 145.935
STRAND 1 22 Jan 08:00:04 08:02:35 14° 267° (W) 08:05:07 437.568
AAUSAT CUBESAT 2 22 Jan 08:00:43 08:04:40 48° 285° (WNW) 08:08:37 437.432
XW-2A 22 Jan 08:06:21 08:09:29 39° 285° (WNW) 08:12:36 145.665 - 145.685
DELFI C3 22 Jan 08:23:45 08:25:44 14° 94° (E) 08:27:45 145.870
SEEDS 22 Jan 08:26:51 08:27:39 10° 294° (WNW) 08:28:28 437.485
RS-15 22 Jan 08:26:53 08:39:00 61° 304° (NW) 08:51:04 29.354- 29.394
JUGNU 22 Jan 08:27:42 08:30:25 13° 167° (SSE) 08:33:08 437.505
Oscar 11 22 Jan 08:31:24 08:35:41 65° 284° (WNW) 08:39:55 .
Max Valier Satellite 22 Jan 08:42:46 08:44:46 14° 94° (E) 08:46:46 145.860
BEESAT 3 22 Jan 08:48:10 08:52:08 76° 300° (WNW) 08:56:07 437.485
EO-88 22 Jan 08:57:45 08:59:35 13° 94° (E) 09:01:24 145.990 - 145.960
PRISM 22 Jan 09:01:42 09:04:35 19° 69° (ENE) 09:07:28 437.425
TIGRISAT 22 Jan 09:03:03 09:07:26 81° 258° (WSW) 09:11:58 435.000
YUBILEINY 22 Jan 09:03:55 09:11:46 36° 75° (ENE) 09:19:32 435.215
FO-29 22 Jan 09:04:46 09:07:26 12° 267° (W) 09:10:00 435.910
UNISAT 6 22 Jan 09:19:02 09:23:15 46° 261° (W) 09:27:36 437.425
PCSat 22 Jan 09:20:37 09:25:57 63° 298° (WNW) 09:31:20 145.827
FALCONSAT 3 22 Jan 09:21:26 09:21:59 10° 214° (SW) 09:22:31 435.103
O/OREOS (USA 219) 22 Jan 09:29:52 09:34:00 35° 66° (ENE) 09:38:07 437.305
BEESAT 2 22 Jan 09:40:09 09:44:08 83° 299° (WNW) 09:48:11 435.950
QB50P2 22 Jan 09:54:07 09:55:23 11° 66° (ENE) 09:56:39 145.880/145.840
DELFI C3 22 Jan 09:57:00 10:00:31 32° 287° (WNW) 10:04:03 145.870
LO-87 22 Jan 10:11:40 10:13:27 13° 94° (E) 10:15:15 145.935 - 145.965
JUGNU 22 Jan 10:14:37 10:18:43 20° 176° (S) 10:22:47 437.505
Max Valier Satellite 22 Jan 10:15:26 10:18:35 27° 287° (WNW) 10:21:42 145.860
AIST 2D 22 Jan 10:18:34 10:22:04 76° 77° (ENE) 10:25:35 435.315
DUCHIFAT 1 22 Jan 10:19:44 10:22:07 15° 68° (ENE) 10:24:31 145.980
EO-79 22 Jan 10:22:12 10:25:26 22° 70° (ENE) 10:28:42 145.935-145.965
AO-85 22 Jan 10:28:48 10:32:18 33° 112° (ESE) 10:35:58 145.980
EO-88 22 Jan 10:30:06 10:33:12 27° 287° (WNW) 10:36:17 145.990 - 145.960
PRISM 22 Jan 10:36:14 10:39:39 26° 263° (W) 10:43:03 437.425
RS-15 22 Jan 10:46:50 10:54:44 19° 331° (NNW) 11:02:34 29.354- 29.394
POLYITAN 1 22 Jan 10:56:36 11:00:45 57° 75° (ENE) 11:04:56 437.675
YUBILEINY 22 Jan 11:00:33 11:08:30 42° 272° (W) 11:16:27 435.215
ESTCUBE 1 22 Jan 11:00:41 11:05:01 47° 100° (E) 11:09:18 437.505/2401.250
O/OREOS (USA 219) 22 Jan 11:10:16 11:13:03 16° 260° (W) 11:15:50 437.305
NANOSAT C BR1 22 Jan 11:10:30 11:14:41 75° 76° (ENE) 11:18:55 145.865
BUGSAT 1 22 Jan 11:14:46 11:16:40 13° 67° (ENE) 11:18:34 437.445
QB50P2 22 Jan 11:26:33 11:30:38 51° 260° (W) 11:34:48 145.880/145.840
LO-87 22 Jan 11:43:43 11:46:51 28° 287° (WNW) 11:49:57 145.935 - 145.965
DUCHIFAT 1 22 Jan 11:53:32 11:57:25 36° 262° (W) 12:01:19 145.980
EO-79 22 Jan 11:57:34 12:01:01 24° 264° (W) 12:04:30 145.935-145.965
Oscar 19 22 Jan 11:59:09 12:03:41 31° 70° (ENE) 12:08:14 437.125/150
Gurwin Techsat 1B 22 Jan 11:59:40 12:03:50 24° 68° (ENE) 12:08:00 435.225
JUGNU 22 Jan 12:03:07 12:07:02 19° 186° (S) 12:10:58 437.505
AO-85 22 Jan 12:10:04 12:12:47 17° 310° (NW) 12:15:36 145.980
SPROUT 22 Jan 12:11:51 12:16:08 70° 101° (E) 12:20:25 437.525
SO-50 22 Jan 12:20:43 12:20:54 10° 45° (NE) 12:21:06 436.795
AO-7 22 Jan 12:23:02 12:25:32 12° 51° (NE) 12:28:03 .
SRMSAT 22 Jan 12:26:40 12:30:33 18° 171° (S) 12:34:27 437.500
VELOX 1 22 Jan 12:28:39 12:32:58 54° 100° (E) 12:37:16 145.980
ESTCUBE 1 22 Jan 12:39:13 12:41:21 13° 294° (WNW) 12:43:29 437.505/2401.250
AO-91 22 Jan 12:40:41 12:44:01 87° 250° (WSW) 12:47:29 145.960
DX 1 22 Jan 12:41:32 12:43:00 11° 93° (E) 12:44:29 434.975-435.025
BUGSAT 1 22 Jan 12:47:47 12:51:35 40° 261° (W) 12:55:28 437.445
RS-15 22 Jan 13:10:37 13:14:43 12° 9° (N) 13:18:46 29.354- 29.394
Oscar 19 22 Jan 13:38:40 13:42:56 26° 264° (W) 13:47:13 437.125/150
Gurwin Techsat 1B 22 Jan 13:38:42 13:43:31 35° 262° (W) 13:48:23 435.225
JUGNU 22 Jan 13:53:38 13:55:19 11° 196° (SSW) 13:56:59 437.505
SO-50 22 Jan 13:57:17 14:02:01 84° 61° (ENE) 14:06:49 436.795
UKube-1 22 Jan 13:59:13 14:03:28 60° 101° (E) 14:07:43 .
50 SAT 22 Jan 14:06:39 14:09:39 44° 285° (WNW) 14:12:37 437.505
VELOX 1 22 Jan 14:07:26 14:08:53 11° 294° (WNW) 14:10:20 145.980
AO-7 22 Jan 14:08:27 14:16:40 65° 69° (ENE) 14:24:55 .
SRMSAT 22 Jan 14:14:45 14:19:04 21° 182° (S) 14:23:23 437.500
DX 1 22 Jan 14:15:12 14:19:22 48° 286° (WNW) 14:23:33 434.975-435.025
ITUPSAT 1 22 Jan 14:26:25 14:29:32 17° 94° (E) 14:32:38 437.325
M-CUBED/EXP-1 PRIME 22 Jan 14:38:16 14:39:48 12° 63° (ENE) 14:41:19 437.505
MOZHAYETS 4 22 Jan 14:38:18 14:42:45 45° 99° (E) 14:47:08
ITAMSAT 1 22 Jan 14:47:51 14:52:58 68° 75° (ENE) 14:58:07 435.822/435.867
CUBESAT XI-V 22 Jan 14:48:30 14:50:23 12° 92° (E) 14:52:16 437.345
BEESAT 22 Jan 15:03:33 15:08:09 45° 100° (E) 15:12:43 436.000
RS-15 22 Jan 15:22:44 15:32:51 32° 43° (NE) 15:42:28 29.354- 29.394
DOVE 4 22 Jan 15:43:31 15:47:45 56° 76° (ENE) 15:51:50 437.250
NO-84 22 Jan 15:44:30 15:47:45 66° 313° (NW) 15:50:46 435.350 FM
ITUPSAT 1 22 Jan 16:02:57 16:07:28 40° 288° (WNW) 16:11:55 437.325
AO-7 22 Jan 16:03:31 16:09:49 24° 264° (W) 16:16:11 .
SRMSAT 22 Jan 16:04:09 16:07:34 16° 192° (SSW) 16:10:59 437.500
XW-2B 22 Jan 16:07:45 16:08:22 10° 68° (ENE) 16:09:00 145.730 - 145.750
M-CUBED/EXP-1 PRIME 22 Jan 16:09:29 16:13:47 53° 255° (WSW) 16:17:50 437.505
MOZHAYETS 4 22 Jan 16:16:54 16:19:27 15° 293° (WNW) 16:21:59
CUBESAT XI-V 22 Jan 16:23:32 16:27:59 50° 285° (WNW) 16:32:23 437.345
ITAMSAT 1 22 Jan 16:31:24 16:32:49 11° 268° (W) 16:34:15 435.822/435.867
XW-2C 22 Jan 16:35:27 16:38:36 25° 72° (ENE) 16:41:46 145.795 - 145.815
LilacSat-2 22 Jan 16:35:40 16:38:59 28° 73° (ENE) 16:42:17 437.200
CUTE-I 22 Jan 16:35:53 16:40:16 27° 69° (ENE) 16:44:39 437.470
BEESAT 22 Jan 16:42:37 16:45:29 16° 294° (WNW) 16:48:20 436.000
KAITUO 1B 22 Jan 17:04:03 17:07:34 39° 75° (ENE) 17:11:06 145.475/437.950
XW-2F 22 Jan 17:09:06 17:12:52 66° 77° (ENE) 17:16:38 145.980 - 146.000
BEESAT 3 22 Jan 17:09:06 17:11:47 17° 52° (NE) 17:14:24 437.485
NUDT-PHONESAT 22 Jan 17:11:10 17:14:45 46° 75° (ENE) 17:18:20 437.300
XW-2D 22 Jan 17:20:34 17:24:22 74° 260° (W) 17:28:11 145.860 - 145.880
KKS-1 22 Jan 17:29:24 17:33:51 72° 284° (WNW) 17:38:18 437.445
RS-15 22 Jan 17:34:48 17:46:16 73° 246° (WSW) 17:57:10 29.354- 29.394
SEEDS 22 Jan 17:36:36 17:39:49 21° 71° (ENE) 17:43:02 437.485
XW-2B 22 Jan 17:38:26 17:42:05 43° 261° (W) 17:45:45 145.730 - 145.750
STARS 22 Jan 17:39:31 17:43:50 52° 101° (E) 17:48:09 437.465
HO-68 22 Jan 17:45:53 17:52:57 66° 72° (ENE) 18:00:02 435.675
CUTE 1.7 + AOD 2 22 Jan 17:52:07 17:56:19 60° 76° (ENE) 18:00:31 437.475
BEESAT 2 22 Jan 18:02:04 18:04:47 17° 52° (NE) 18:07:27 435.950
XW-2C 22 Jan 18:10:10 18:12:43 17° 265° (W) 18:15:16 145.795 - 145.815
LilacSat-2 22 Jan 18:10:52 18:13:14 15° 266° (W) 18:15:35 437.200
PCSat 22 Jan 18:12:24 18:17:35 45° 60° (ENE) 18:22:45 145.827
CUTE-I 22 Jan 18:15:27 18:20:08 31° 263° (W) 18:24:49 437.470
CUBEBUG 2 22 Jan 18:25:26 18:29:46 89° 243° (WSW) 18:34:18 437.445
UWE-3 22 Jan 18:26:29 18:30:43 49° 74° (ENE) 18:35:06 435.000/436.395/437.385
STRAND 1 22 Jan 18:33:02 18:37:18 26° 96° (E) 18:41:33 437.568
XW-2A 22 Jan 18:33:08 18:36:07 28° 74° (ENE) 18:39:06 145.665 - 145.685
KAITUO 1B 22 Jan 18:41:31 18:41:39 10° 267° (W) 18:41:47 145.475/437.950
ZACube-1 22 Jan 18:45:30 18:49:39 40° 73° (ENE) 18:53:53 437.345
BEESAT 3 22 Jan 18:45:53 18:49:19 30° 248° (WSW) 18:52:42 437.485
AAUSAT CUBESAT 2 22 Jan 18:46:11 18:50:15 59° 76° (ENE) 18:54:19 437.432
AO-73 22 Jan 18:50:56 18:55:05 40° 73° (ENE) 18:59:19 145.935
AO-85 22 Jan 19:03:24 19:06:25 16° 49° (NE) 19:09:32 145.980
nSIGHT-1 22 Jan 19:03:24 19:06:32 71° 317° (NW) 19:09:41 .
SEEDS 22 Jan 19:11:52 19:15:19 24° 264° (W) 19:18:47 437.485
STARS 22 Jan 19:17:59 19:19:40 12° 294° (WNW) 19:21:21 437.465
Oscar 11 22 Jan 19:21:46 19:26:01 56° 75° (ENE) 19:30:16 .
ISS 22 Jan 19:25:13 19:28:26 64° 318° (NW) 19:31:41 437.550
HO-68 22 Jan 19:36:17 19:41:05 19° 266° (W) 19:45:54 435.675
BEESAT 2 22 Jan 19:38:58 19:42:33 33° 247° (WSW) 19:46:05 435.950
